Location: Liman
(36.8524°N, 30.6183°E)
Time: 21:06:17
(UTC+00:00)

Daily predictions for brighter satellites

Satellite Brightness Start Highest point End
(mag) Time Altitude Azimuth Time Altitude Azimuth Time Altitude Azimuth
Cosmos 158 Rocket 3.8 16:14:01 10° S 16:18:49 63° ESE 16:23:37 10° NNE
Iridium 4 Rocket 3.1 16:15:30 10° N 16:19:41 62° E 16:24:04 10° SSE
Cosmos 1607 4.2 16:16:04 10° S 16:22:17 53° ESE 16:28:32 10° NE
SL-08 R/B 4.1 16:18:44 10° NE 16:23:05 31° E 16:27:23 10° SSE
KORONAS-FOTON 3.7 16:20:52 10° N 16:24:29 55° E 16:28:02 10° SSE
Sich 1 4.3 16:22:11 10° SE 16:25:17 20° E 16:28:24 10° NE
SeaSat 1 2.4 16:20:25 10° NNE 16:25:22 84° ESE 16:30:16 10° SSW
Helios 1A 4.0 16:26:14 10° NE 16:29:30 23° E 16:32:46 10° SSE
Cosmos 1464 Rocket 4.2 16:23:53 10° SSE 16:29:56 50° E 16:36:03 10° NNE
Cosmos 1328 Rocket 3.6 16:28:43 10° N 16:33:02 85° W 16:37:22 10° S
COSMO-SKYMED 1 4.0 16:29:12 10° N 16:33:19 43° WNW 16:37:25 10° SW
Tiangong -2.2 16:30:47 10° WSW 16:33:54 85° NNW 16:37:01 10° ENE
Cosmos 2369 Rocket 4.1 16:33:32 10° NNE 16:35:18 11° NE 16:37:03 10° ENE
USA 290 3.7 16:33:16 10° NNW 16:36:23 41° WSW 16:39:29 10° S
Helios 1B rocket 2.2 16:33:22 10° SSE 16:37:11 72° ENE 16:41:01 10° N
CZ-4 R/B 2.9 16:35:01 10° ESE 16:37:24 17° ENE 16:39:58 10° NNE
USA 234 3.4 16:33:52 10° SE 16:40:25 79° SW 16:47:00 10° NW
ARIANE 6 FM1 Upper Stage 3.8 16:37:03 10° S 16:40:31 25° ESE 16:44:03 10° ENE
Radarsat Rocket 4.3 16:34:37 10° SSE 16:41:25 83° WSW 16:47:31 10° NNW
Meteor 1-4 Rocket 3.4 16:42:34 10° NNW 16:45:02 37° W 16:47:28 10° SSW
CZ-4B R/B 4.2 16:45:00 14° ESE 16:47:13 21° ENE 16:50:21 10° NNE
TRACE 4.2 16:43:56 10° NNE 16:47:17 80° ESE 16:50:36 10° S
Landsat 7 4.0 16:43:09 10° S 16:47:50 77° WSW 16:52:33 10° NNW
Meteor 1-13 Rocket 4.5 16:42:27 10° N 16:48:01 48° ENE 16:53:27 10° SSE
Cosmos 1805 Rocket 4.1 16:44:43 10° SSE 16:48:35 34° E 16:52:30 10° NNE
Aureole 2 4.5 16:45:29 10° N 16:49:16 60° ENE 16:52:34 10° SSE
Longmarch 3A Rocket 4.5 16:48:45 10° SSW 16:53:06 31° SE 17:03:13 15° E
Resurs 01 Rocket 3.0 16:52:56 17° E 16:54:30 21° ENE 16:57:46 10° NNE
Cosmos 2084 Rocket 3.6 16:50:28 10° SSW 16:54:41 48° ESE 16:58:48 10° NE
Cosmos 1975 3.8 16:53:40 11° SE 16:56:35 23° E 16:59:41 10° NE
Cosmos 2034 Rocket 4.0 16:51:06 10° SSE 16:57:05 54° E 17:03:03 10° NNE
ACS3 Solar Sail 2.9 17:03:22 19° E 17:06:00 25° ENE 17:11:02 10° NNE
Cosmos 1707 3.8 17:04:48 10° NNW 17:08:11 43° W 17:11:33 10° SSW
SL-16 R/B 2.1 17:04:13 10° SSW 17:09:52 79° ESE 17:15:33 10° NNE
Meteor PRIRODA 3.3 17:08:48 23° SSE 17:10:38 56° ENE 17:13:51 10° N
ASTRO E2 3.2 17:13:04 10° WSW 17:15:59 30° S 17:16:23 29° SSE
SAR-Lupe-2 3.6 17:13:37 10° S 17:17:10 79° WSW 17:20:45 10° NNW
Cosmos 1805 3.0 17:16:47 10° S 17:20:24 84° W 17:24:04 10° N
Meteor 1-11 Rocket 4.3 17:16:52 10° SSW 17:22:21 59° W 17:27:48 10° N
Resurs 1-3 3.8 17:18:10 10° S 17:22:28 71° W 17:26:48 10° NNW
SPOT 1/Viking Rocket 3.5 17:17:26 10° SSE 17:22:36 87° WSW 17:27:46 10° NNW
Cosmos 1943 4.4 17:18:15 10° SSE 17:26:19 17° NE 17:27:46 10° NE
Cosmos 1315 Rocket 2.8 17:21:11 10° N 17:25:09 80° W 17:28:35 13° S
Cosmos 1428 Rocket 4.4 17:21:04 10° N 17:27:10 67° E 17:33:12 10° SSE
Cosmos 783 Rocket 4.4 17:22:16 10° S 17:27:31 74° ESE 17:32:45 10° NNE
Cosmos 2278 Rocket 4.0 17:23:35 10° NW 17:28:27 30° WSW 17:33:17 10° SSW
ADEOS 3.7 17:24:29 10° S 17:29:41 75° WSW 17:34:54 10° NNW
CSL-04 Rocket 3.9 17:30:21 36° ESE 17:31:45 44° ENE 17:36:45 10° N
CZ-4B DEB 4.2 17:27:31 10° SSE 17:33:01 88° WSW 17:38:32 10° NNW
USA 59 Rocket 3.2 17:29:54 10° WNW 17:33:05 17° WSW 17:36:54 10° SSW
CZ-4B R/B 3.3 17:31:22 34° SE 17:33:19 51° ENE 17:38:28 10° N
Meteor 1-21 4.4 17:30:03 10° N 17:35:40 50° ENE 17:37:24 38° SE
SL-14 R/B 3.0 17:33:43 10° N 17:37:32 69° E 17:37:36 69° E
CZ-4B R/B 4.2 17:41:16 10° S 17:45:51 49° W 17:50:33 10° NNW
ARGOS Delta rocket 4.4 17:42:03 10° S 17:46:54 57° W 17:51:32 10° NNW
USA 186 3.2 17:52:09 33° NNW 17:52:09 33° NNW 17:54:03 10° NNW
Cosmos 2195 Rocket 4.4 17:44:51 10° N 17:51:00 88° W 17:55:38 19° S
SJ-6B 4.3 17:48:39 13° SSW 17:51:25 31° W 17:54:39 10° NNW
Cosmos 2026 Rocket 3.8 17:49:57 10° N 17:56:07 85° E 17:58:57 34° S
Cosmos 1943 Rocket 4.3 17:55:16 10° NW 17:59:35 24° WSW 18:03:55 10° SSW
OAO 3 Rocket 3.3 17:55:32 10° W 18:00:03 62° SSW 18:00:03 62° SSW
Okean O Rocket 2.6 18:03:43 37° NNE 18:03:43 37° NNE 18:06:32 10° N
CARTOSAT-1 3.8 18:03:09 62° WSW 18:03:23 64° W 18:07:37 10° NNW
Gbstr 26 Del rocket 4.4 17:55:58 10° SSW 18:03:48 64° SE 18:06:17 44° ENE
Cosmos 1092 Rocket 4.0 18:00:17 10° N 18:06:39 82° W 18:09:40 34° S
USA 32 4.5 18:02:20 10° NNW 18:07:30 60° W 18:10:15 27° SSW
CSL-04 Debris 4.2 18:07:19 52° S 18:08:40 78° WSW 18:14:09 10° NNW
Tiangong 0.6 18:07:51 10° WNW 18:09:05 19° WNW 18:09:05 19° WNW
CZ-4 R/B 3.1 18:10:31 25° SW 18:11:38 29° W 18:15:05 10° NW
MOS 1-B 4.2 18:11:07 70° SSE 18:11:50 87° ENE 18:17:38 10° NNW
Cosmos 1656 Rocket 3.5 18:08:14 10° NNW 18:13:51 82° WSW 18:14:10 77° SSW
Cosmos 2297 3.5 18:09:40 10° NNW 18:15:20 89° ENE 18:15:21 89° E
Cosmos 1634 Rocket 4.3 18:11:49 10° SSW 18:18:03 64° W 18:24:21 10° N
Terra 4.3 18:22:17 11° NNE 18:22:17 11° NNE 18:22:27 10° NNE
Cosmos 2369 Rocket 2.2 18:14:30 10° NNW 18:19:41 71° NNE 18:19:41 71° NNE
NOSS 3-4 (A) 3.8 18:20:16 10° NNW 18:27:28 87° NE 18:28:32 70° SE
NOSS 3-4 (C) 3.8 18:20:22 10° NNW 18:27:35 87° ENE 18:28:36 71° SE
Resurs 01 Rocket 3.2 18:30:24 31° WSW 18:30:41 31° W 18:34:38 10° NNW
ACS3 Solar Sail 2.5 18:48:37 47° SW 18:49:35 51° W 18:55:49 10° NNW
